Find Starlink 32033

NORAD ID: 60144 Int'l Des: 2024-120 Owner: SPXS Country: US Constellation: starlink operational
LEOCIRCULAR

現在のビュー

3D地球を読み込み中...

About Starlink 32033

Starlink 32033 (NORAD 60144) is a starlink constellation satellite (v2 mini) launched Jun 27, 2024 by SPXS of US. It operates in LEO, CIRCULAR orbit with a mass of 730.00 kg.

Starlink 32033について

説明を読み込み中...

次回通過

Passes for default location (London). Set your location on the main map for personalized predictions.

高度履歴

Loading altitude history...

軌道要素

1 60144U 24120K 26171.41668980 .00012668 00000-0 38560-3 0 9991
2 60144 53.1583 202.4807 0001237 68.8832 98.4640 15.34385059 5899
Epoch: Jun 20, 2026 • Age: 28 hours

現在のステータス

高度 472.0 km
速度 7.63 km/s
衛星直下点 -28.61°S, 84.14°W
打ち上げ日 Jun 27, 2024
運用期間 1.9 years
タイプ internet

技術仕様

分類 Payload
質量 730.00 kg
乾燥質量 700.00 kg
総質量 730.00 kg
長さ 0.30 m
直径 4.10 m
スパン 29.00 m
形状 Box + pan
製造者 SPXS
バスタイプ Starlink V2M
フェーズステータス In Orbit
所有者/国 SPXS/US

Most Searched